Location: Aufkirchen
(47.9603°N, 11.3653°E)
Time: 13:46:35
(UTC+01:00)

Transit 2A Rocket - Pass Details

Date: 07 December 2020
Orbit: 592 x 910 km, 66.7° (Epoch: 21 January)

Event Time Altitude Azimuth Distance (km) Brightness Sun altitude
Rises 02:13:28 0° 257° (WSW) 3,454 - -54.2°
Reaches altitude 10° 02:16:32 10° 271° (W) 2,475 - -53.7°
Maximum altitude 02:21:04 24° 324° (NW) 1,640 - -53.1°
Drops below altitude 10° 02:25:21 10° 17° (NNE) 2,318 - -52.5°
Sets 02:28:07 0° 32° (NNE) 3,186 - -52.1°
